TimeAKDT,TemperatureF,Dew PointF,Humidity,Sea Level PressureIn,VisibilityMPH,Wind Direction,Wind SpeedMPH,Gust SpeedMPH,PrecipitationIn,Events,Conditions,WindDirDegrees,DateUTC
12:16 AM,37.4,33.8,87,29.43,5.0,SW,26.5,34.5,N/A,,Overcast,220,2012-10-06 08:16:00
12:36 AM,37.4,33.8,87,29.43,5.0,SW,27.6,36.8,N/A,,Overcast,220,2012-10-06 08:36:00
12:56 AM,37.4,33.8,87,29.45,4.0,SW,20.7,35.7,N/A,,Overcast,220,2012-10-06 08:56:00
1:36 AM,37.4,33.8,87,29.47,8.0,SSW,20.7,29.9,N/A,,Overcast,210,2012-10-06 09:36:00
1:56 AM,37.4,33.8,87,29.49,7.0,SSW,17.3,24.2,N/A,,Overcast,210,2012-10-06 09:56:00
2:16 AM,37.4,33.8,87,29.50,6.0,SSW,21.9,28.8,N/A,,Overcast,210,2012-10-06 10:16:00
2:36 AM,39.2,33.8,81,29.50,4.0,SSW,23.0,26.5,N/A,,Overcast,210,2012-10-06 10:36:00
2:56 AM,37.4,33.8,87,29.51,5.0,SSW,19.6,26.5,N/A,,Overcast,210,2012-10-06 10:56:00
3:16 AM,37.4,35.6,93,29.51,3.0,SW,18.4,23.0,N/A,,Overcast,220,2012-10-06 11:16:00
3:56 AM,37.4,33.8,87,29.51,4.0,SW,18.4,24.2,N/A,,Overcast,220,2012-10-06 11:56:00
4:16 AM,37.4,33.8,87,29.51,7.0,SW,26.5,33.4,N/A,,Overcast,220,2012-10-06 12:16:00
4:36 AM,37.4,33.8,87,29.51,5.0,SSW,23.0,29.9,N/A,,Overcast,210,2012-10-06 12:36:00
4:56 AM,37.4,33.8,87,29.52,9.0,SSW,23.0,32.2,N/A,,Mostly Cloudy,210,2012-10-06 12:56:00
5:16 AM,37.4,33.8,87,29.52,10.0,SSW,24.2,32.2,N/A,,Mostly Cloudy,210,2012-10-06 13:16:00
5:36 AM,37.4,33.8,87,29.53,10.0,SW,21.9,29.9,N/A,,Overcast,220,2012-10-06 13:36:00
5:56 AM,37.4,33.8,87,29.54,10.0,SSW,25.3,29.9,N/A,,Overcast,210,2012-10-06 13:56:00
6:16 AM,37.4,33.8,87,29.55,8.0,SSW,25.3,31.1,N/A,,Overcast,210,2012-10-06 14:16:00
6:36 AM,35.6,33.8,93,29.56,7.0,SW,20.7,28.8,N/A,,Overcast,220,2012-10-06 14:36:00
6:56 AM,35.6,33.8,93,29.56,10.0,SW,24.2,29.9,N/A,,Mostly Cloudy,220,2012-10-06 14:56:00
7:16 AM,37.4,33.8,87,29.57,10.0,SW,21.9,26.5,N/A,,Overcast,220,2012-10-06 15:16:00
7:36 AM,37.4,33.8,87,29.58,9.0,SW,18.4,24.2,N/A,,Overcast,220,2012-10-06 15:36:00
7:56 AM,35.6,33.8,93,29.59,8.0,SW,19.6,26.5,N/A,,Overcast,220,2012-10-06 15:56:00
8:16 AM,35.6,33.8,93,29.61,7.0,SW,16.1,-,N/A,,Overcast,230,2012-10-06 16:16:00
8:36 AM,37.4,33.8,87,29.61,10.0,SW,20.7,24.2,N/A,,Overcast,220,2012-10-06 16:36:00
8:56 AM,37.4,33.8,87,29.62,10.0,SW,18.4,24.2,N/A,,Overcast,230,2012-10-06 16:56:00
9:16 AM,35.6,32.0,87,29.64,10.0,SW,13.8,-,N/A,,Overcast,230,2012-10-06 17:16:00
9:36 AM,35.6,32.0,87,29.65,10.0,SW,15.0,21.9,N/A,,Overcast,230,2012-10-06 17:36:00
9:56 AM,35.6,32.0,87,29.66,10.0,SW,15.0,-,N/A,,Overcast,230,2012-10-06 17:56:00
10:16 AM,37.4,32.0,81,29.68,10.0,SW,15.0,-,N/A,,Overcast,230,2012-10-06 18:16:00
10:36 AM,37.4,32.0,81,29.69,10.0,SW,12.7,-,N/A,,Overcast,230,2012-10-06 18:36:00
10:56 AM,37.4,32.0,81,29.71,10.0,SW,12.7,-,N/A,,Overcast,230,2012-10-06 18:56:00
11:16 AM,35.6,33.8,93,29.72,10.0,SW,13.8,-,N/A,,Mostly Cloudy,230,2012-10-06 19:16:00
11:36 AM,35.6,33.8,93,29.74,10.0,WSW,13.8,-,N/A,,Overcast,240,2012-10-06 19:36:00
11:56 AM,35.6,33.8,93,29.75,10.0,WSW,11.5,-,N/A,,Overcast,240,2012-10-06 19:56:00
12:16 PM,37.4,33.8,87,29.77,10.0,WSW,11.5,-,N/A,,Overcast,240,2012-10-06 20:16:00
12:36 PM,37.4,33.8,87,29.78,10.0,WSW,11.5,-,N/A,,Overcast,240,2012-10-06 20:36:00
12:56 PM,37.4,33.8,87,29.80,10.0,SW,11.5,-,N/A,,Overcast,230,2012-10-06 20:56:00
1:16 PM,37.4,33.8,87,29.81,3.0,WSW,9.2,-,N/A,,Overcast,240,2012-10-06 21:16:00
1:36 PM,37.4,33.8,87,29.82,4.0,WSW,4.6,-,N/A,,Overcast,250,2012-10-06 21:36:00
1:56 PM,37.4,33.8,87,29.84,3.0,NNE,9.2,-,N/A,,Overcast,30,2012-10-06 21:56:00
2:16 PM,35.6,33.8,93,29.85,5.0,NE,8.1,-,N/A,,Overcast,50,2012-10-06 22:16:00
2:36 PM,37.4,33.8,87,29.86,3.0,NE,6.9,-,N/A,,Overcast,50,2012-10-06 22:36:00
2:56 PM,35.6,33.8,93,29.88,2.0,ENE,6.9,-,N/A,,Overcast,70,2012-10-06 22:56:00
3:16 PM,35.6,33.8,93,29.90,2.5,East,5.8,-,N/A,,Overcast,90,2012-10-06 23:16:00
3:36 PM,35.6,33.8,93,29.90,1.5,NE,5.8,-,N/A,,Overcast,50,2012-10-06 23:36:00
3:56 PM,35.6,30.2,81,29.92,5.0,NNE,6.9,-,N/A,,Overcast,30,2012-10-06 23:56:00
4:16 PM,35.6,30.2,81,29.93,10.0,NNE,8.1,-,N/A,,Overcast,30,2012-10-07 00:16:00
4:36 PM,33.8,30.2,87,29.94,10.0,North,6.9,-,N/A,,Overcast,10,2012-10-07 00:36:00
4:56 PM,35.6,30.2,81,29.94,7.0,NNE,5.8,-,N/A,,Overcast,20,2012-10-07 00:56:00
5:16 PM,35.6,30.2,81,29.95,10.0,NNE,8.1,-,N/A,,Overcast,20,2012-10-07 01:16:00
5:36 PM,33.8,30.2,87,29.97,10.0,North,8.1,-,N/A,,Overcast,10,2012-10-07 01:36:00
5:56 PM,35.6,28.4,75,29.98,10.0,North,6.9,-,N/A,,Overcast,10,2012-10-07 01:56:00
6:16 PM,33.8,28.4,81,29.99,10.0,North,8.1,-,N/A,,Overcast,360,2012-10-07 02:16:00
6:36 PM,35.6,28.4,75,30.01,10.0,North,6.9,-,N/A,,Overcast,360,2012-10-07 02:36:00
6:56 PM,35.6,28.4,75,30.02,10.0,North,5.8,-,N/A,,Overcast,360,2012-10-07 02:56:00
7:16 PM,35.6,28.4,75,30.04,10.0,North,6.9,-,N/A,,Overcast,10,2012-10-07 03:16:00
7:36 PM,33.8,28.4,81,30.05,10.0,North,8.1,-,N/A,,Overcast,350,2012-10-07 03:36:00
7:56 PM,35.6,26.6,70,30.06,10.0,North,12.7,-,N/A,,Overcast,350,2012-10-07 03:56:00
8:16 PM,35.6,26.6,70,30.07,10.0,North,11.5,-,N/A,,Overcast,350,2012-10-07 04:16:00
8:36 PM,33.8,28.4,81,30.08,10.0,North,12.7,-,N/A,,Overcast,350,2012-10-07 04:36:00
8:56 PM,33.8,28.4,81,30.09,10.0,North,15.0,18.4,N/A,,Overcast,350,2012-10-07 04:56:00
9:16 PM,33.8,26.6,75,30.11,10.0,North,12.7,-,N/A,,Overcast,350,2012-10-07 05:16:00
9:36 PM,33.8,28.4,81,30.12,10.0,NNW,11.5,-,N/A,,Overcast,340,2012-10-07 05:36:00
9:56 PM,33.8,28.4,81,30.13,10.0,NNW,10.4,-,N/A,,Overcast,340,2012-10-07 05:56:00
10:16 PM,33.8,28.4,81,30.14,10.0,North,11.5,-,N/A,,Overcast,350,2012-10-07 06:16:00
10:36 PM,33.8,26.6,75,30.15,9.0,NNW,10.4,-,N/A,,Overcast,340,2012-10-07 06:36:00
10:56 PM,33.8,26.6,75,30.15,10.0,North,11.5,17.3,N/A,,Overcast,350,2012-10-07 06:56:00
11:16 PM,33.8,26.6,75,30.16,10.0,North,13.8,-,N/A,,Overcast,350,2012-10-07 07:16:00
11:36 PM,33.8,26.6,75,30.17,10.0,North,15.0,-,N/A,,Overcast,350,2012-10-07 07:36:00
11:56 PM,33.8,26.6,75,30.18,10.0,North,13.8,-,N/A,,Overcast,350,2012-10-07 07:56:00